Location: Fredensborg
(55.9735°N, 12.4039°E)
Time: 06:52:00
(UTC+00:00)

Daily predictions for brighter satellites

Satellite Brightness Start Highest point End
(mag) Time Altitude Azimuth Time Altitude Azimuth Time Altitude Azimuth
IRIDIUM 114 4.4 19:38:04 10° S 19:43:18 84° E 19:48:33 10° N
Cosmos 614 Rocket 4.2 19:39:26 10° S 19:44:23 49° ESE 19:49:26 10° NE
USA 267 3.7 19:39:56 10° ENE 19:46:00 38° SE 19:52:01 10° SSW
IGS 5A 3.5 19:42:20 10° SSE 19:46:26 66° ENE 19:50:34 10° N
Cosmos 1900 4.4 19:42:40 10° SSW 19:47:32 59° SE 19:52:32 10° NE
GP-B 3.7 19:43:41 10° NNE 19:47:56 41° E 19:52:09 10° SSE
IRIDIUM 103 4.5 19:47:12 10° S 19:52:26 85° W 19:57:42 10° N
Cosmos 921 Rocket 3.4 19:49:38 10° NNW 19:53:48 48° ENE 19:57:52 10° SE
CZ-2C R/B 3.8 19:49:11 10° NNE 19:53:54 90° W 19:58:29 10° SSW
Cosmos 1821 Rocket 4.0 19:48:37 10° S 19:54:45 76° E 20:01:01 10° NNE
Cosmos 1862 Rocket 3.8 19:51:37 10° N 19:56:05 59° ENE 20:00:28 10° SSE
Intercosmos 25 4.2 19:50:52 10° NNW 19:56:05 60° W 19:59:39 10° S
SL-16 R/B 3.0 19:51:04 10° NNW 19:56:31 43° NE 20:01:55 10° ESE
COSMOS 2406 3.3 19:51:06 10° SSW 19:56:46 63° ESE 20:02:27 10° NE
Lacrosse 5 1.9 19:55:36 10° WNW 20:00:42 86° SSW 20:05:48 10° ESE
Cosmos 2369 4.2 19:55:50 10° NW 20:01:29 60° WSW 20:07:06 10° SSE
ERS-1 Rocket 3.2 19:56:36 10° SE 20:01:31 57° ENE 20:06:27 10° N
Cosmos 1862 3.8 20:01:55 10° SSW 20:05:57 66° WNW 20:10:01 10° N
Sich 1 3.1 20:02:24 10° S 20:06:51 86° E 20:11:20 10° NNE
Cosmos 2219 Rocket 4.2 20:02:33 10° NNW 20:06:57 22° NNE 20:11:20 10° ENE
BREEZE-M DEB (TANK) 3.4 20:06:47 10° WSW 20:08:47 19° S 20:09:54 13° SE
NOSS 2 (A) 4.2 20:07:21 10° NW 20:10:14 77° SW 20:12:18 14° SE
Cosmos 2123 Rocket 4.1 20:04:20 10° NNW 20:10:36 89° W 20:16:51 10° S
Cosmos 2278 4.0 20:05:07 10° NW 20:10:50 70° WSW 20:16:30 10° SSE
Cosmos 2082 Rocket 2.7 20:06:44 10° S 20:11:59 40° ESE 20:17:14 10° NE
Spot 2 Rocket 3.8 20:12:29 10° S 20:17:36 71° WSW 20:22:43 10° NNW
Cosmos 1535 Rocket 4.5 20:11:48 10° S 20:17:52 68° E 20:23:57 10° NNE
Meteor 1-4 Rocket 2.9 20:15:04 10° NNW 20:18:33 60° W 20:21:58 10° S
Cosmos 2322 Rocket 2.8 20:13:29 10° NNW 20:19:01 49° NE 20:24:25 11° ESE
CZ-2C R/B 3.9 20:16:33 10° N 20:21:26 43° WNW 20:26:19 10° SW
CARTOSAT-1 3.6 20:20:05 10° SSE 20:24:19 80° ENE 20:28:40 10° NNW
Cosmos 1184 Rocket 3.2 20:21:09 10° S 20:24:20 45° E 20:27:31 10° NNE
Cosmos 1190 Rocket 4.1 20:19:30 10° S 20:24:43 62° ESE 20:29:58 10° NNE
USA 234 3.8 20:18:46 11° SE 20:24:51 48° SW 20:31:10 10° WNW
Terra 2.1 20:21:08 12° SE 20:25:27 58° ENE 20:30:09 10° N
Cosmos 407 Rocket 3.5 20:22:20 10° SSW 20:27:39 76° ESE 20:32:56 10° NNE
Cosmos 1933 Rocket 4.2 20:24:16 12° SSE 20:28:03 38° E 20:32:10 10° NNE
Okean 1 3.5 20:24:05 10° N 20:28:06 58° ENE 20:31:27 14° SSE
Cosmos 1605 Rocket 4.1 20:22:14 10° S 20:28:11 57° E 20:34:10 10° NNE
Cosmos 1666 Rocket 3.6 20:24:07 10° SSW 20:28:26 87° W 20:32:49 10° NNE
Cosmos 1238 Rocket 2.8 20:28:02 15° SSE 20:30:12 36° E 20:32:57 10° NNE
Cosmos 1437 Rocket 3.2 20:28:54 10° N 20:32:39 47° ENE 20:35:27 16° SE
Cosmos 2360 Rocket 3.2 20:27:47 10° NNW 20:33:09 40° NE 20:38:28 10° ESE
Cosmos 1602 4.5 20:31:37 14° SSE 20:34:35 36° E 20:38:13 10° NNE
Meteor 1-19 Rocket 4.2 20:32:07 10° NNW 20:37:34 70° ENE 20:42:13 14° SSE
ERBS 2.2 20:35:40 10° WSW 20:39:00 87° SSE 20:42:20 10° ENE
SPOT 5 2.6 20:35:54 13° SSE 20:39:48 86° WSW 20:44:13 10° NNW
USA 238 DEB 4.2 20:34:45 10° S 20:40:41 36° ESE 20:46:51 10° ENE
USA 238 4.2 20:34:53 10° S 20:40:48 35° ESE 20:46:57 10° ENE
Cosmos 1980 Rocket 2.9 20:36:25 10° NW 20:41:53 50° WSW 20:47:05 11° S
Cosmos 1703 Rocket 3.6 20:39:25 10° N 20:43:47 65° ENE 20:47:06 17° SSE
Cosmos 2242 Rocket 3.6 20:39:19 10° N 20:43:48 84° ENE 20:47:29 15° SSE
Iridium 4 Rocket 4.3 20:41:58 15° SE 20:44:33 26° E 20:48:05 10° NNE
Geosat 4.3 20:40:38 14° SE 20:44:55 60° NE 20:49:53 10° NNW
SPOT 1/Viking Rocket 4.2 20:40:28 10° S 20:45:34 54° W 20:50:44 10° NNW
Cosmos 1763 Rocket 3.6 20:41:33 10° NNW 20:46:55 83° ENE 20:51:08 17° SSE
SL-4 R/B 2.8 20:46:42 10° SSW 20:49:48 24° SSE 20:51:35 17° ESE
BREEZE-M DEB (TANK) 3.4 20:47:09 10° WSW 20:50:15 41° SSE 20:58:44 10° E
Cosmos 405 Rocket 2.8 20:49:21 16° S 20:52:07 52° E 20:55:46 10° NNE
Cosmos 2333 Rocket 3.7 20:47:59 10° NNW 20:53:08 32° NNE 20:58:16 10° E
FAST 4.4 20:50:02 10° NNW 20:53:09 89° E 20:54:41 22° S
Cosmos 1140 Rocket 3.5 20:48:03 10° SSW 20:53:19 89° WNW 20:58:37 10° NNE
ALOS 2 4.5 20:50:29 10° ESE 20:53:40 20° NE 20:56:51 10° N
Cosmos 2237 Rocket 4.4 20:52:37 10° NNW 20:56:55 21° NNE 21:01:11 10° ENE
Cosmos 1697 Rocket 4.4 20:52:44 10° NW 20:57:10 25° WSW 21:01:36 10° SSW
USA 32 4.2 20:53:59 10° SSW 20:59:13 78° W 21:04:30 10° N
Cosmos 1633 Rocket 3.8 20:57:29 10° SSW 21:01:50 54° WNW 21:06:12 10° N
Cosmos 1833 Rocket 2.9 20:56:57 10° SW 21:02:35 74° NW 21:08:15 10° NNE
Meteor 1-18 Rocket 4.4 20:59:33 10° NNW 21:05:11 72° W 21:09:50 15° S
Okean 1-7 3.0 21:01:06 10° NNW 21:05:29 90° E 21:08:30 19° S
Cosmos 2221 Rocket 4.4 21:02:04 10° N 21:06:18 40° ENE 21:09:01 19° SE
Cosmos 1867 3.6 21:03:34 10° SSW 21:08:54 58° SE 21:14:16 10° NE
Cosmos 1153 Rocket 4.5 21:03:26 12° S 21:09:03 72° E 21:15:14 10° NNE
CENTAUR R/B 3.3 21:04:45 14° S 21:09:16 33° ESE 21:15:30 10° ENE
Okean 3 3.9 21:07:18 10° N 21:11:29 50° ENE 21:13:59 22° SE
Resurs 01 Rocket 4.3 21:09:48 10° WSW 21:12:05 14° W 21:14:22 10° NW
Meteor 2-4 Rocket 3.7 21:09:07 10° NNW 21:14:54 84° ENE 21:18:53 20° SSE
FALCON 9 DEB 4.1 21:12:32 10° SW 21:15:22 27° SSE 21:15:22 27° SSE
Cosmos 1515 3.9 21:12:05 10° NNW 21:15:54 67° W 21:18:23 21° S
Cosmos 1850 Rocket 4.4 21:14:19 18° S 21:18:02 46° ESE 21:23:04 10° NE
Cosmos 1802 Rocket 4.5 21:13:52 19° SSE 21:18:11 46° E 21:24:12 10° NNE
deb Kosmos-1763 4.4 21:15:56 10° SW 21:19:32 64° WNW 21:23:11 10° NNE
Cosmos 44 3.3 21:15:02 10° NW 21:19:51 83° SW 21:23:09 22° SE
SL-27 R/B 3.5 21:19:37 25° ESE 21:20:03 26° ESE 21:22:53 10° NE
ATLAS 5 CENTAUR R/B 1.6 21:18:10 10° WNW 21:20:31 64° SSW 21:23:25 21° SE
SWARM A 4.4 21:17:41 10° N 21:21:01 67° W 21:22:57 23° SSW
Cosmos 676 Rocket 4.1 21:16:53 10° SSW 21:22:14 83° WNW 21:27:38 10° NNE
Meteor 1-25 Rocket 4.4 21:18:50 10° SSW 21:24:24 72° WNW 21:30:04 10° NNE
Cosmos 1470 Rocket 4.2 21:20:12 10° SSW 21:24:33 55° WNW 21:28:53 10° N
USA 267 3.2 21:23:03 10° ENE 21:29:38 77° SSE 21:36:12 10° WSW
Spot 4 4.1 21:27:26 23° SE 21:30:21 62° ENE 21:35:08 10° N
NOSS 3-2 (A) 3.5 21:29:11 10° SSW 21:34:58 63° SE 21:41:41 10° NE
Cosmos 841 Rocket 3.5 21:33:40 10° NNW 21:38:54 75° WSW 21:42:00 25° SSE
Cosmos 540 Rocket 3.5 21:35:10 10° NNW 21:40:21 75° WSW 21:43:22 25° SSE
SL-16 R/B 2.6 21:35:18 10° NW 21:40:50 54° WSW 21:44:17 23° S
NOSS 3-2 (C) 3.7 21:35:51 13° SSW 21:40:57 48° SE 21:47:24 10° NE
OPS 6432 4.2 21:38:54 10° SW 21:42:33 89° NNW 21:45:34 10° NE
Lacrosse 5 2.6 21:38:41 10° WNW 21:43:22 38° SW 21:45:31 26° S
Cosmos 2322 4.1 21:37:52 10° NNW 21:43:31 59° NE 21:47:37 19° ESE
Cosmos 1378 Rocket 4.4 21:45:19 10° N 21:49:33 40° ENE 21:51:46 24° SE
Cosmos 1570 Rocket 4.3 21:44:53 10° NNW 21:50:08 62° WSW 21:53:10 25° S
Tsikada Rocket 4.1 21:44:33 10° N 21:50:58 71° ENE 21:54:55 24° SSE
Cosmos 2219 Rocket 2.8 21:46:39 10° NNW 21:52:13 51° NE 21:56:38 16° ESE
Cosmos 2208 Rocket 4.1 21:47:00 10° NNW 21:52:17 69° WSW 21:55:11 27° S
Cosmos 1741 Rocket 3.9 21:48:23 18° SSW 21:52:23 76° ESE 21:57:41 10° NNE
Cosmos 1814 Rocket 4.1 21:47:29 10° NNW 21:52:40 71° WSW 21:55:32 27° SSE
Cosmos 2082 Rocket 2.9 21:50:23 10° SW 21:55:59 55° NW 22:01:35 10° NNE
Cosmos 2237 4.2 21:51:36 10° NW 21:57:20 74° WSW 22:00:34 27° SSE
Cosmos 2333 4.4 21:52:08 10° NNW 21:57:58 70° NE 22:01:49 22° SE
COSMOS 2487 4.3 21:58:46 17° E 21:58:46 17° E 22:00:51 10° ENE
Cosmos 2084 Rocket 4.1 21:59:01 31° SE 21:59:29 32° SE 22:03:21 10° ENE
Cosmos 2322 Rocket 2.8 21:57:41 10° NW 22:03:08 47° WSW 22:06:13 24° S
Terra 3.5 22:00:02 12° SW 22:03:32 26° W 22:07:34 10° NW
EO 1 Del DPAF 3.7 22:00:23 10° NNE 22:04:00 42° E 22:04:57 35° SE
SL-16 R/B 4.4 22:02:42 10° NNW 22:07:13 23° NNE 22:11:44 10° ENE
Cosmos 2100 Rocket 4.1 22:05:36 17° SSW 22:10:25 73° WNW 22:16:36 10° N
Cosmos 1242 Rocket 2.5 22:07:24 10° NNW 22:11:01 82° ENE 22:12:07 43° SSE
Meteor 1-11 Rocket 3.8 22:09:10 27° S 22:12:21 71° E 22:18:07 10° NNE
Helios 1A 4.0 22:13:11 23° ESE 22:15:17 39° ENE 22:19:14 10° N
ERBS 2.4 22:12:04 10° W 22:15:23 74° N 22:18:11 14° E
Cosmos 1869 Rocket 4.1 22:13:01 20° SSW 22:15:56 57° WNW 22:20:21 10° N
Cosmos 2360 Rocket 2.4 22:11:51 10° NW 22:17:28 61° WSW 22:20:19 29° S
COSMOS 2428 3.0 22:12:56 10° NNW 22:18:41 65° NE 22:22:37 21° SE
Okean 2 4.3 22:19:27 10° N 22:23:18 38° ENE 22:25:03 26° ESE
ATLAS 3B R/B 3.1 22:21:13 27° S 22:24:06 40° ESE 22:30:15 10° NE
CRYOSAT 2 4.4 22:19:14 10° N 22:24:08 75° W 22:26:46 27° SSW
Iridium 4 Rocket 3.9 22:21:45 20° SW 22:24:23 43° W 22:28:26 10° N
Cosmos 2173 Rocket 4.3 22:21:11 17° SSW 22:26:02 62° WNW 22:32:08 10° N
Cosmos 1500 4.2 22:25:10 20° SW 22:27:18 40° WNW 22:30:53 10° N
SL-4 R/B 3.1 22:25:23 10° WSW 22:27:12 24° SW 22:27:12 24° SW
ALOS 2 2.6 22:27:44 36° S 22:29:31 80° WSW 22:33:57 10° NNW
USA 238 DEB 3.7 22:24:22 10° SW 22:31:07 83° NW 22:38:14 10° NE
USA 238 3.7 22:24:29 10° SW 22:31:14 84° NW 22:38:20 10° NE
Cosmos 1725 Rocket 4.0 22:27:20 25° S 22:31:16 89° WNW 22:37:39 10° NNE
Cosmos 1674 Rocket 3.5 22:27:13 10° NNW 22:31:33 77° W 22:33:13 37° S
SL-08 R/B 4.5 22:32:18 25° SSW 22:36:06 82° WNW 22:42:15 10° N
Cosmos 1536 2.8 22:34:39 37° SSW 22:36:09 81° WNW 22:40:10 10° N
Cosmos 2333 Rocket 2.2 22:32:17 10° NW 22:38:07 87° WSW 22:41:19 28° SSE
Cosmos 1666 2.9 22:37:32 34° SW 22:38:57 62° WNW 22:42:42 10° N
Cosmos 1743 3.2 22:38:17 38° SE 22:39:14 48° E 22:43:01 10° NNE
Cosmos 1271 Rocket 2.6 22:35:56 10° NNW 22:39:43 86° ENE 22:40:47 46° SSE
NOSS 0 Rocket 4.2 22:36:04 10° NW 22:42:18 66° NE 22:47:14 17° SE
Cosmos 2237 Rocket 3.0 22:36:53 10° NNW 22:42:22 47° NE 22:47:32 11° ESE
Cosmos 1356 3.6 22:41:30 40° SW 22:42:30 63° WNW 22:45:57 10° N
MOS 1-B Rocket 4.1 22:36:55 10° NNE 22:42:42 66° WNW 22:46:44 19° SW
Cosmos 2016 Rocket 4.3 22:39:51 21° SSW 22:44:17 66° WNW 22:50:39 10° N
Cosmos 2061 Rocket 4.3 22:41:23 21° SSW 22:45:40 65° WNW 22:51:51 10° N
Lacrosse 4 Rocket 2.3 22:45:23 30° SE 22:45:47 31° ESE 22:49:30 10° NE
Cosmos 1867 4.5 22:47:21 10° WSW 22:52:40 50° NNW 22:58:02 10° NE
Cosmos 1733 Rocket 3.2 22:50:59 32° SSW 22:52:56 68° WNW 22:57:22 10° N
Thor Agena Rocket 3.7 22:48:55 10° NNE 22:53:57 68° WNW 22:57:00 24° SW
Meteor 2-11 Rocket 4.5 22:51:22 30° S 22:54:29 68° E 23:00:34 10° NNE
Cosmos 44 Rocket 3.3 22:49:49 10° NW 22:54:48 84° SW 22:57:31 28° SE
SL-27 R/B 3.8 22:53:08 18° WSW 22:55:04 33° NW 22:58:09 10° NNE
CENTAUR R/B 2.7 22:52:52 10° SW 22:59:15 85° NW 23:06:53 10° NE
Cosmos 968 Rocket 3.8 22:59:01 33° SSE 23:00:50 48° ESE 23:05:47 10° NE
SL-24 DEB 4.3 22:58:32 10° N 23:03:21 79° E 23:05:18 36° S
Cosmos 1975 3.4 23:02:22 35° SE 23:03:26 44° E 23:07:17 10° NNE
Resurs 1-4 Rocket 4.5 23:03:24 10° ENE 23:04:48 11° E 23:06:12 10° E
Cosmos 1378 4.0 23:08:07 10° NNW 23:11:37 38° W 23:12:29 32° SW
Cosmos 1782 Rocket 3.9 23:10:37 35° SSE 23:12:02 51° E 23:16:15 10° NNE
USA 267 3.3 23:06:13 10° E 23:12:47 82° N 23:19:21 10° W
Cosmos 1707 3.6 23:10:51 10° N 23:14:37 43° ENE 23:16:13 28° SE
Cosmos 1842 3.2 23:12:37 10° NNW 23:16:36 80° WSW 23:17:41 46° S
Cosmos 2233 Rocket 4.2 23:14:30 25° SSW 23:18:20 67° WNW 23:24:41 10° N
Cosmos 1464 Rocket 4.2 23:15:36 28° SSE 23:18:52 61° E 23:24:58 10° NNE
Cosmos 2344 4.2 23:10:14 10° NW 23:19:01 89° NE 23:31:11 10° SE
Cosmos 1908 Rocket 3.5 23:18:33 39° SSW 23:20:09 85° WNW 23:24:34 10° NNE
Helios 1B rocket 3.7 23:16:58 10° NNE 23:20:35 29° E 23:21:48 25° SE
Meteor 1-21 4.2 23:16:32 10° NNW 23:22:24 85° WSW 23:25:21 31° S
SL-16 R/B 4.4 23:21:46 10° WNW 23:23:43 12° W 23:25:39 10° WSW
Lacrosse 5 4.1 23:24:21 10° WSW 23:24:41 10° WSW 23:24:41 10° WSW
Cosmos 2227 Rocket 4.1 23:22:42 12° SE 23:25:11 16° E 23:28:31 10° ENE
Cosmos 1607 4.4 23:19:28 10° NW 23:25:52 64° NNE 23:32:18 10° ESE
NOSS 3-2 (A) 4.2 23:19:57 10° WSW 23:26:01 58° NNW 23:33:08 10° ENE
Cosmos 2322 4.5 23:22:21 10° NW 23:27:31 37° WSW 23:29:31 28° SSW
NOSS 3-2 (C) 3.9 23:25:40 10° WSW 23:31:44 66° NNW 23:38:52 10° NE
Cosmos 1833 4.2 23:28:44 25° SW 23:32:11 82° NW 23:37:55 10° NE
COSMOS 2487 2.8 23:32:14 38° WSW 23:33:14 56° WNW 23:36:40 10° NNE
Nadezhda 4 Rocket 4.0 23:28:03 10° N 23:34:25 83° ENE 23:38:04 27° SSE
Cosmos 2219 Rocket 2.7 23:30:48 10° NW 23:36:10 44° WSW 23:38:19 31° SSW
Cosmos 2084 Rocket 3.7 23:35:30 17° WSW 23:38:46 67° NNW 23:43:08 10° NE
Meteor 1-29 4.4 23:37:26 10° NE 23:40:25 26° E 23:41:13 23° ESE
Cosmos 1975 Rocket 3.3 23:36:25 10° NNW 23:40:52 58° W 23:42:25 37° SSW
Cosmos 1437 2.8 23:41:05 10° N 23:44:04 58° ENE 23:44:31 51° ESE
Okean 2 Rocket 3.7 23:45:22 30° SSE 23:47:10 48° E 23:51:32 10° NNE
Cosmos 2034 Rocket 4.1 23:43:53 28° S 23:47:20 69° E 23:53:39 10° NNE
Landsat 4 3.6 23:44:17 10° NNE 23:48:08 78° ESE 23:49:12 45° S
Cosmos 1503 Rocket 4.0 23:45:55 32° SSW 23:48:26 75° ESE 23:53:50 10° NNE
Cosmos 1092 Rocket 4.2 23:42:20 10° N 23:48:38 71° ENE 23:52:45 22° SSE
Cosmos 1072 Rocket 4.4 23:46:51 29° SSW 23:50:10 84° WNW 23:56:19 10° N
Helios 1A 4.0 23:49:48 28° SW 23:50:55 33° W 23:54:46 10° NNW
CZ-2D R/B 3.8 23:46:52 10° NE 23:51:17 24° E 23:54:54 13° SE
ERBS 2.6 23:48:23 10° WNW 23:51:02 44° WSW 23:51:02 44° WSW
SL-16 R/B 3.1 23:46:15 12° SE 23:51:59 55° ENE 23:58:05 10° NNW
SL-16 R/B 2.8 23:46:55 10° NNW 23:52:34 57° NE 23:58:10 10° SE
Cosmos 1300 Rocket 4.0 23:52:28 32° SSE 23:54:09 51° E 23:58:21 10° NNE
Cosmos 1544 3.7 23:54:38 34° WSW 23:55:45 46° WNW 23:59:19 10° N
